Location: Düngen
(52.0952°N, 10.0219°E)
Time: 04:52:00
(UTC+00:00)

CSL-04 Debris - Visible Passes

Search period start: 06 June 2026 00:00
Search period end: 16 June 2026 00:00
Orbit: 819 x 839 km, 98.7° (Epoch: 5 June)

Date Brightness Start Highest point End Pass type
(mag) Time Alt. Az. Time Alt. Az. Time Alt. Az.
6 Jun 6.5 20:26:39 10° SW 20:30:37 20° W 20:34:36 10° NW visible
10 Jun 6.8 20:56:27 10° WSW 20:58:35 12° W 21:00:45 10° WNW visible
11 Jun 6.6 20:36:36 10° SW 20:40:06 17° W 20:43:37 10° NW visible
